Hourly Weather Salkino

Today, 11 July, Saturday

Time Temperature Precipitation Wind Pressure Humidity
00:00 +15°C° 0.1 mm 4 mps 740 mmHg 85%
01:00 +15°C° 0.1 mm 4 mps 740 mmHg 89%
02:00 +15°C° 0.1 mm 4 mps 740 mmHg 92%
03:00 +15°C° 0 mm 4 mps 740 mmHg 93%
04:00 +15°C° 0 mm 4 mps 739 mmHg 94%
05:00 +15°C° 0 mm 4 mps 739 mmHg 94%
06:00 +17°C° 0 mm 4 mps 739 mmHg 91%
07:00 +17°C° 0 mm 5 mps 739 mmHg 87%
08:00 +20°C° 0 mm 5 mps 739 mmHg 83%
09:00 +21°C° 0.1 mm 6 mps 739 mmHg 81%
10:00 +22°C° 0.1 mm 6 mps 739 mmHg 78%
11:00 +24°C° 0.1 mm 6 mps 739 mmHg 75%
12:00 +23°C° 0.6 mm 6 mps 739 mmHg 80%
13:00 +23°C° 0.6 mm 5 mps 739 mmHg 86%
14:00 +22°C° 0.6 mm 5 mps 739 mmHg 91%
15:00 +23°C° 0.2 mm 5 mps 739 mmHg 85%
16:00 +25°C° 0.2 mm 5 mps 739 mmHg 79%
17:00 +25°C° 0.2 mm 5 mps 739 mmHg 73%
18:00 +23°C° 0.1 mm 4 mps 739 mmHg 76%
19:00 +21°C° 0.1 mm 3 mps 740 mmHg 80%
20:00 +20°C° 0.1 mm 2 mps 740 mmHg 83%
21:00 +18°C° 0 mm 2 mps 740 mmHg 82%
22:00 +16°C° 0 mm 2 mps 740 mmHg 81%
23:00 +15°C° 0 mm 2 mps 741 mmHg 80%

Tomorrow, 12 July, Sunday

Time Temperature Precipitation Wind Pressure Humidity
00:00 +14°C° 0 mm 2 mps 741 mmHg 81%
01:00 +13°C° 0 mm 2 mps 741 mmHg 82%
02:00 +12°C° 0 mm 1 mps 741 mmHg 84%
03:00 +13°C° 0.2 mm 1 mps 741 mmHg 83%
04:00 +13°C° 0.2 mm 1 mps 741 mmHg 83%
05:00 +13°C° 0.2 mm 1 mps 741 mmHg 83%
06:00 +13°C° 0.4 mm 1 mps 741 mmHg 86%
07:00 +14°C° 0.4 mm 1 mps 742 mmHg 88%
08:00 +14°C° 0.4 mm 1 mps 742 mmHg 90%
09:00 +14°C° 0 mm 2 mps 742 mmHg 89%
10:00 +14°C° 0 mm 2 mps 742 mmHg 87%
11:00 +15°C° 0 mm 2 mps 741 mmHg 85%
12:00 +15°C° 0.1 mm 2 mps 741 mmHg 85%
13:00 +14°C° 0.1 mm 3 mps 741 mmHg 85%
14:00 +14°C° 0.1 mm 3 mps 741 mmHg 85%
15:00 +13°C° 0.1 mm 3 mps 741 mmHg 87%
16:00 +13°C° 0.1 mm 3 mps 740 mmHg 89%
17:00 +12°C° 0.1 mm 4 mps 740 mmHg 91%
18:00 +12°C° 0 mm 3 mps 740 mmHg 91%
19:00 +12°C° 0 mm 3 mps 740 mmHg 92%
20:00 +12°C° 0 mm 3 mps 740 mmHg 92%
21:00 +12°C° 0.1 mm 3 mps 740 mmHg 92%
22:00 +13°C° 0.1 mm 2 mps 739 mmHg 92%
23:00 +12°C° 0.1 mm 2 mps 739 mmHg 92%

Day after tomorrow, 13 July, Monday

Time Temperature Precipitation Wind Pressure Humidity
00:00 +12°C° 0.1 mm 2 mps 739 mmHg 93%
01:00 +12°C° 0.1 mm 2 mps 739 mmHg 94%
02:00 +12°C° 0.1 mm 2 mps 738 mmHg 95%
03:00 +11°C° 0.2 mm 3 mps 738 mmHg 95%
04:00 +11°C° 0.2 mm 3 mps 738 mmHg 95%
05:00 +11°C° 0.2 mm 3 mps 738 mmHg 96%
06:00 +11°C° 0.1 mm 3 mps 737 mmHg 95%
07:00 +11°C° 0.1 mm 3 mps 737 mmHg 95%
08:00 +12°C° 0.1 mm 3 mps 737 mmHg 94%
09:00 +12°C° 0.1 mm 3 mps 737 mmHg 94%
10:00 +12°C° 0.1 mm 3 mps 737 mmHg 94%
11:00 +12°C° 0.1 mm 3 mps 737 mmHg 93%
12:00 +13°C° 0.1 mm 3 mps 737 mmHg 92%
13:00 +13°C° 0.1 mm 3 mps 737 mmHg 91%
14:00 +13°C° 0.1 mm 3 mps 737 mmHg 90%
15:00 +14°C° 0 mm 3 mps 737 mmHg 87%
16:00 +14°C° 0 mm 3 mps 737 mmHg 84%
17:00 +16°C° 0 mm 3 mps 737 mmHg 82%
18:00 +15°C° 0 mm 2 mps 737 mmHg 84%
19:00 +15°C° 0 mm 2 mps 737 mmHg 87%
20:00 +14°C° 0 mm 1 mps 737 mmHg 90%
21:00 +13°C° 0 mm 1 mps 737 mmHg 91%
22:00 +13°C° 0 mm 1 mps 736 mmHg 92%
23:00 +12°C° 0 mm 1 mps 736 mmHg 94%

14 July, Tuesday

Time Temperature Precipitation Wind Pressure Humidity
00:00 +12°C° 0 mm 2 mps 736 mmHg 94%
01:00 +12°C° 0 mm 2 mps 736 mmHg 95%
02:00 +10°C° 0 mm 2 mps 737 mmHg 95%
03:00 +12°C° 0 mm 2 mps 737 mmHg 94%
04:00 +12°C° 0 mm 2 mps 737 mmHg 92%
05:00 +11°C° 0 mm 3 mps 737 mmHg 90%
06:00 +13°C° 0 mm 3 mps 737 mmHg 82%
07:00 +16°C° 0 mm 3 mps 737 mmHg 74%
08:00 +18°C° 0 mm 4 mps 737 mmHg 65%
09:00 +19°C° 0 mm 4 mps 737 mmHg 61%
10:00 +20°C° 0 mm 4 mps 737 mmHg 56%
11:00 +21°C° 0 mm 4 mps 737 mmHg 51%
12:00 +21°C° 0 mm 4 mps 737 mmHg 51%
13:00 +21°C° 0 mm 4 mps 737 mmHg 50%
14:00 +22°C° 0 mm 4 mps 737 mmHg 49%
15:00 +21°C° 0 mm 4 mps 737 mmHg 51%
16:00 +21°C° 0 mm 4 mps 737 mmHg 53%
17:00 +20°C° 0 mm 4 mps 737 mmHg 55%
18:00 +19°C° 0 mm 4 mps 737 mmHg 59%
19:00 +17°C° 0 mm 3 mps 737 mmHg 62%
20:00 +14°C° 0 mm 3 mps 737 mmHg 65%
21:00 +13°C° 0 mm 3 mps 737 mmHg 67%
22:00 +12°C° 0 mm 3 mps 737 mmHg 69%
23:00 +12°C° 0 mm 2 mps 737 mmHg 70%

15 July, Wednesday

Time Temperature Precipitation Wind Pressure Humidity
00:00 +10°C° 0 mm 3 mps 737 mmHg 74%
01:00 +10°C° 0 mm 3 mps 737 mmHg 78%
02:00 +10°C° 0 mm 3 mps 737 mmHg 81%
03:00 +10°C° 0 mm 3 mps 737 mmHg 81%
04:00 +11°C° 0 mm 3 mps 738 mmHg 81%
05:00 +11°C° 0 mm 3 mps 738 mmHg 81%
06:00 +13°C° 0 mm 3 mps 738 mmHg 75%
07:00 +14°C° 0 mm 3 mps 738 mmHg 69%
08:00 +17°C° 0 mm 3 mps 738 mmHg 63%
09:00 +18°C° 0 mm 3 mps 738 mmHg 59%
10:00 +19°C° 0 mm 3 mps 738 mmHg 56%
11:00 +20°C° 0 mm 3 mps 738 mmHg 53%
12:00 +20°C° 0 mm 3 mps 737 mmHg 52%
13:00 +21°C° 0 mm 3 mps 737 mmHg 51%
14:00 +21°C° 0 mm 3 mps 737 mmHg 50%
15:00 +21°C° 0.1 mm 2 mps 737 mmHg 57%
16:00 +20°C° 0.1 mm 2 mps 737 mmHg 64%
17:00 +21°C° 0.1 mm 1 mps 737 mmHg 71%
18:00 +19°C° 0.1 mm 1 mps 737 mmHg 75%
19:00 +18°C° 0.1 mm 1 mps 737 mmHg 80%
20:00 +16°C° 0.1 mm 1 mps 736 mmHg 84%
21:00 +15°C° 0 mm 2 mps 736 mmHg 85%
22:00 +14°C° 0 mm 2 mps 736 mmHg 87%
23:00 +13°C° 0 mm 2 mps 736 mmHg 89%

16 July, Thursday

Time Temperature Precipitation Wind Pressure Humidity
00:00 +13°C° 0 mm 2 mps 736 mmHg 89%
01:00 +13°C° 0 mm 2 mps 736 mmHg 89%
02:00 +12°C° 0 mm 2 mps 736 mmHg 89%
03:00 +12°C° 0 mm 2 mps 736 mmHg 89%
04:00 +13°C° 0 mm 2 mps 736 mmHg 88%
05:00 +13°C° 0 mm 2 mps 736 mmHg 87%
06:00 +15°C° 0 mm 2 mps 736 mmHg 80%
07:00 +16°C° 0 mm 2 mps 736 mmHg 73%
08:00 +18°C° 0 mm 2 mps 736 mmHg 66%
09:00 +20°C° 0 mm 2 mps 736 mmHg 60%
10:00 +21°C° 0 mm 2 mps 736 mmHg 54%
11:00 +23°C° 0 mm 2 mps 735 mmHg 48%
12:00 +24°C° 0 mm 2 mps 735 mmHg 47%
13:00 +24°C° 0 mm 2 mps 735 mmHg 47%
14:00 +24°C° 0 mm 2 mps 734 mmHg 46%
15:00 +24°C° 0 mm 2 mps 734 mmHg 50%
16:00 +23°C° 0 mm 2 mps 734 mmHg 55%
17:00 +23°C° 0 mm 2 mps 734 mmHg 59%
18:00 +20°C° 0 mm 2 mps 733 mmHg 66%
19:00 +18°C° 0 mm 2 mps 733 mmHg 73%
20:00 +16°C° 0 mm 2 mps 733 mmHg 80%
21:00 +16°C° 0 mm 2 mps 733 mmHg 82%
22:00 +15°C° 0 mm 2 mps 732 mmHg 84%
23:00 +14°C° 0 mm 2 mps 732 mmHg 86%
Show more